Lake Nacogdoches Weather Center

Moon Phase Calendar



Lake Nacogdoches Water Level
Online Cameras

 


      

Current Conditions in Fredonia Hill
7/31/2021 3:54:56 AM

77°F
Feels Like 79
Clear
Humidity
94%
Pressure
30.03"
Wind
0
Dew Point
75°F
UV Index
0/10 (Low)
Visibility
6 mi

Hourly Forecast

Date & Time Sat, Jul 31
3:00 AM
Sat, Jul 31
4:00 AM
Sat, Jul 31
5:00 AM
Sat, Jul 31
6:00 AM
Sat, Jul 31
7:00 AM
Sat, Jul 31
8:00 AM
Sat, Jul 31
9:00 AM
Sat, Jul 31
10:00 AM
Sat, Jul 31
11:00 AM
Sat, Jul 31
12:00 PM
Sat, Jul 31
1:00 PM
Sat, Jul 31
2:00 PM
Sat, Jul 31
3:00 PM
Sat, Jul 31
4:00 PM
Sat, Jul 31
5:00 PM
Sat, Jul 31
6:00 PM
Sat, Jul 31
7:00 PM
Sat, Jul 31
8:00 PM
Sat, Jul 31
9:00 PM
Sat, Jul 31
10:00 PM
Sat, Jul 31
11:00 PM
Sun, Aug 1
12:00 AM
Sun, Aug 1
1:00 AM
Sun, Aug 1
2:00 AM
Sun, Aug 1
3:00 AM
Sun, Aug 1
4:00 AM
Sun, Aug 1
5:00 AM
Sun, Aug 1
6:00 AM
Sun, Aug 1
7:00 AM
Sun, Aug 1
8:00 AM
Sun, Aug 1
9:00 AM
Sun, Aug 1
10:00 AM
Sun, Aug 1
11:00 AM
Sun, Aug 1
12:00 PM
Sun, Aug 1
1:00 PM
Sun, Aug 1
2:00 PM
Sun, Aug 1
3:00 PM
Sun, Aug 1
4:00 PM
Sun, Aug 1
5:00 PM
Sun, Aug 1
6:00 PM
Sun, Aug 1
7:00 PM
Sun, Aug 1
8:00 PM
Sun, Aug 1
9:00 PM
Sun, Aug 1
10:00 PM
Sun, Aug 1
11:00 PM
Mon, Aug 2
12:00 AM
Mon, Aug 2
1:00 AM
Mon, Aug 2
2:00 AM
Condition
Clear

Clear

Clear

Clouds

Clouds

Clouds

Clouds

Clouds

Clouds

Clouds

Clouds

Clear

Clouds

Clouds

Clouds

Clouds

Clouds

Clouds

Clouds

Clouds

Clouds

Clouds

Clouds

Clouds

Clouds

Clouds

Clouds

Clouds

Clouds

Clear

Clear

Clear

Clear

Clear

Clear

Clear

Clear

Clouds

Clouds

Clouds

Clouds

Clouds

Clouds

Rain

Clouds

Clouds

Rain

Rain
Temperature 77°F77°F77°F76°F76°F79°F83°F87°F91°F94°F96°F98°F99°F99°F97°F93°F88°F85°F84°F82°F80°F78°F78°F77°F76°F76°F76°F75°F75°F79°F83°F86°F89°F93°F95°F98°F99°F99°F97°F97°F92°F87°F85°F82°F80°F79°F77°F75°F
Feels Like 79°F79°F78°F78°F78°F79°F91°F96°F101°F103°F105°F105°F105°F104°F103°F101°F96°F91°F88°F86°F80°F80°F79°F78°F78°F77°F77°F77°F77°F80°F89°F93°F97°F100°F103°F104°F104°F102°F101°F101°F100°F92°F90°F87°F84°F79°F78°F76°F
Cloudiness 3%1%8%16%20%20%19%17%15%14%13%7%11%23%34%37%42%58%59%56%43%37%41%86%54%38%29%23%19%3%1%1%1%1%1%3%3%15%27%22%20%91%86%85%79%75%67%31%
Visibility 6 mi6 mi6 mi6 mi6 mi6 mi6 mi6 mi6 mi6 mi6 mi6 mi6 mi6 mi6 mi6 mi6 mi6 mi6 mi6 mi6 mi6 mi6 mi6 mi6 mi6 mi6 mi6 mi6 mi6 mi6 mi6 mi6 mi6 mi6 mi6 mi6 mi6 mi6 mi6 mi6 mi6 mi6 mi6 mi6 mi6 mi6 mi6 mi
Precipitation 0%0%0%0%0%0%0%2%0%0%0%0%0%0%0%4%4%0%0%0%0%0%0%0%2%2%2%0%0%0%0%0%0%0%0%0%0%0%0%0%0%10%11%30%39%34%51%59%
Humidity 92%94%93%94%94%87%76%67%58%51%45%40%36%35%42%50%61%65%62%65%71%78%83%86%88%88%89%90%91%84%74%65%58%51%45%40%36%34%35%38%52%58%62%70%74%77%85%91%
Dew Point 74°F75°F74°F74°F74°F75°F75°F75°F74°F73°F72°F70°F68°F67°F69°F71°F73°F72°F70°F69°F70°F71°F72°F72°F72°F72°F72°F72°F72°F73°F73°F73°F73°F72°F71°F69°F67°F66°F66°F67°F71°F70°F71°F71°F71°F71°F71°F72°F
Pressure 30.03"30.03"30.03"30.03"30.03"30.06"30.06"30.06"30.06"30.03"30.03"30"29.97"29.97"29.94"29.94"29.94"29.94"29.94"29.97"29.97"29.97"29.97"29.97"29.97"29.97"29.97"30"30"30.03"30.03"30.03"30.03"30.03"30"29.97"29.94"29.94"29.88"29.85"29.88"29.91"29.94"29.97"29.97"29.97"29.97"29.97"
Wind Speed 3.1 mph3 mph2.6 mph2.5 mph2.8 mph2.9 mph3.2 mph3.5 mph3 mph2.8 mph2.5 mph2.1 mph1.8 mph1 mph1.1 mph1.9 mph2.6 mph2.9 mph3.4 mph4.8 mph5.1 mph4.7 mph4.8 mph4.3 mph4.1 mph4 mph3.9 mph4 mph4.2 mph5 mph5.6 mph5.3 mph4.8 mph4.1 mph3.3 mph2.6 mph2.3 mph2.5 mph3.4 mph3.2 mph3.1 mph3.4 mph5.3 mph5 mph3 mph4.1 mph3.1 mph2.8 mph
Wind
Direction
210°
SSW
220°
SW
226°
SW
221°
SW
222°
SW
231°
SW
228°
SW
225°
SW
217°
SW
203°
SSW
195°
SSW
174°
S
168°
SSE
157°
SSE
91°
E
176°
S
170°
S
180°
S
217°
SW
207°
SSW
207°
SSW
199°
SSW
199°
SSW
214°
SW
221°
SW
213°
SSW
214°
SW
222°
SW
222°
SW
233°
SW
233°
SW
239°
WSW
238°
WSW
240°
WSW
234°
SW
222°
SW
225°
SW
229°
SW
235°
SW
212°
SSW
267°
W
272°
W
237°
WSW
233°
SW
128°
SE
137°
SE
189°
S
249°
WSW

Daily Forecast

Date High Low Precip. Humidity
Today
Jul 31

Clouds
99 °F
76 °F
4%
45%
Sunday
Aug 1

Rain
99 °F
75 °F
30%
45%
Monday
Aug 2

Rain
92 °F
74 °F
96%
62%
Tuesday
Aug 3

Rain
90 °F
72 °F
94%
47%
Wednesday
Aug 4

Clouds
89 °F
69 °F
0%
46%
Thursday
Aug 5

Clouds
92 °F
67 °F
0%
38%
Friday
Aug 6

Clear
94 °F
68 °F
0%
35%
Saturday
Aug 7

Clear
95 °F
70 °F
0%
37%
Sunday
Aug 8

Rain
94 °F
70 °F
39%
42%
Monday
Aug 9

Rain
93 °F
73 °F
39%
46%
Tuesday
Aug 10

Rain
96 °F
74 °F
87%
42%
Wednesday
Aug 11

Rain
95 °F
75 °F
75%
43%
Thursday
Aug 12

Clouds
95 °F
73 °F
54%
43%
Friday
Aug 13

Clouds
93 °F
74 °F
14%
50%
Saturday
Aug 14

Clouds
98 °F
74 °F
2%
41%
Sunday
Aug 15

Clouds
99 °F
72 °F
0%
40%

Temperature 8-14 Day Outlook



Precipitation 8-14 Day Outlook




Quick Links
Lake Nacogdoches News
Lake Nacogdoches Photos
Lake Nacogdoches Videos




About Us
Contact Us
Site Map
Search Site
Advertise With Us
   
Nacogdoches.LakesOnline.com
THE LAKE NACOGDOCHES WEBSITE

Copyright 2021, Lakes Online
Privacy    |    Legal